sat.trackr.live / text

‹ back to catalog

STARLINK-37392

NORAD 69171 · 2026-111Z

PAYLOAD ACTIVE UNKNOWN

§ Identity

Operator
Country
US
Launch date
2026-05-21
Launch site
AFETR
Launch vehicle
Mass (kg)
RCS (m²)

Purposes: comms

External: N2YO · Heavens-Above · Gunter

§ Orbital elements

Epoch: 2026-09-19T23:39:06.451776Z

Period
93.85 min
Inclination
53.1580°
Eccentricity
0.0001175
Mean motion
15.34405388 rev/d
Perigee alt
461.9 km
Apogee alt
463.5 km
Semi-major
6,840.8 km
B*
4.4517e-4
RAAN
67.8430°
Arg perigee
101.3531°
Mean anomaly
258.7603°
Rev number
1,882

§ Raw data

STARLINK-373921 69171U 26111Z   26262.98549134  .00014696  00000+0  44517-3 0  99952 69171  53.1580  67.8430 0001175 101.3531 258.7603 15.34405388 18825

JSON: /api/v1/satellites/69171 · /tle

For live sub-satellite position, see the globe view (requires WebGL).

§ Visibility from observer

Set your observer location to see the next 7 days of passes ≥ 10°. The values pass through the URL so the page stays shareable.

No JS? Fill the form by hand. The geolocation button needs JavaScript.